Weather History for Billings, MT

Change the Weather History Date:

Saturday, October 27, 2012

  Actual Average Record
Temperature  
Mean Temperature 35 °F 44 °F  
Max Temperature 39 °F 55 °F 82 °F (1983)
Min Temperature 30 °F 34 °F 16 °F (1991)
Degree Days  
Heating Degree Days 30 21  
Month to date heating degree days 519 435  
Since 1 July heating degree days 584 664  
Cooling Degree Days 0 0  
Month to date cooling degree days 3 0  
Year to date cooling degree days 958 633  
Moisture  
Dew Point 27 °F    
Average Humidity 82    
Maximum Humidity 100    
Minimum Humidity 64    
Precipitation  
Precipitation T in 0.03 in 0.98 in (1940)
Month to date precipitation 1.12 1.07  
Year to date precipitation 6.20 12.42  
Snow  
Snow T in 0.20 in 7.20 in (1991)
Month to date snowfall 4.1 3.5  
Since 1 July snowfall 4.1 4.6  
Since 1 September snowfall 4.1 4.6  
Snow Depth 0.00 in    
Sea Level Pressure  
Sea Level Pressure 30.12 in    
Wind  
Wind Speed 3 mph (NNE)    
Max Wind Speed 10 mph    
Max Gust Speed 10 mph    
Visibility 10 miles    
Events Snow    
T = Trace of Precipitation, MM = Missing Value Source: NWS Daily Summary

Daily Weather History Graph

Daily Weather History Graph

Search for Another Location

Airport:

Trip Planner

Search our weather history database for the weather conditions in past years. The results will help you decide how hot, cold, wet, or windy it might be!

Date:

Astronomy

Oct. 27, 2012 Rise Set
Actual Time 7:48 AM MDT 6:07 PM MDT
Civil Twilight 7:17 AM MDT 6:37 PM MDT
Nautical Twilight 6:42 AM MDT 7:12 PM MDT
Astronomical Twilight 6:07 AM MDT 7:47 PM MDT
Moon 4:57 PM MDT (10/27) 5:41 AM MDT (10/27)
Length of Visible Light 11h 20m
Length of Day
10h 19m
Waxing Gibbous, 96% of the Moon is Illuminated
Oct 27
Waxing Gibbous
Oct 29
Full
Nov 6
Last Quarter
Nov 13
New
Nov 20
First Quarter

Hourly Weather History & Observations

Time (MDT) Temp. Windchill Dew Point Humidity Pressure Visibility Wind Dir Wind Speed Gust Speed Precip Events Conditions
12:53 AM 32.0 °F - 23.0 °F 69% 30.15 in 10.0 mi Calm Calm - N/A   Overcast
1:53 AM 32.0 °F - 24.1 °F 73% 30.14 in 10.0 mi Calm Calm - N/A   Overcast
2:53 AM 32.0 °F - 24.1 °F 73% 30.13 in 10.0 mi Calm Calm - N/A   Overcast
3:53 AM 30.9 °F 26.2 °F 24.1 °F 76% 30.14 in 10.0 mi NW 4.6 mph - N/A   Overcast
4:53 AM 30.9 °F - 24.1 °F 76% 30.14 in 10.0 mi Calm Calm - N/A   Overcast
5:53 AM 30.0 °F 24.1 °F 25.0 °F 82% 30.16 in 10.0 mi SW 5.8 mph - N/A   Overcast
6:53 AM 30.9 °F - 24.1 °F 76% 30.17 in 10.0 mi Calm Calm - N/A   Overcast
7:53 AM 32.0 °F 25.6 °F 24.1 °F 73% 30.16 in 10.0 mi ESE 6.9 mph - N/A   Overcast
8:53 AM 33.1 °F - 24.1 °F 70% 30.17 in 10.0 mi Calm Calm - N/A   Overcast
9:53 AM 34.0 °F - 24.1 °F 67% 30.17 in 10.0 mi Calm Calm - N/A   Overcast
10:53 AM 36.0 °F 32.1 °F 27.0 °F 70% 30.15 in 10.0 mi ENE 4.6 mph - N/A   Overcast
11:53 AM 37.0 °F - 27.0 °F 67% 30.14 in 10.0 mi Calm Calm - N/A   Overcast
12:53 PM 39.0 °F - 28.0 °F 65% 30.12 in 10.0 mi Calm Calm - N/A   Overcast
1:24 PM 35.6 °F 28.6 °F 28.4 °F 75% 30.05 in 1.5 mi SW 9.2 mph - 0.00 in Snow Light Snow
1:35 PM 35.6 °F 30.7 °F 30.2 °F 81% 30.05 in 5.0 mi SW 5.8 mph - 0.00 in Snow Light Snow
1:53 PM 36.0 °F 33.3 °F 30.0 °F 79% 30.12 in 10.0 mi SSW 3.5 mph - 0.00 in   Overcast
2:53 PM 37.9 °F 33.5 °F 28.9 °F 70% 30.09 in 10.0 mi East 5.8 mph - N/A   Overcast
3:53 PM 37.9 °F 33.5 °F 30.0 °F 73% 30.10 in 10.0 mi NNE 5.8 mph - N/A   Overcast
4:53 PM 37.0 °F 31.6 °F 30.9 °F 79% 30.11 in 10.0 mi NE 6.9 mph - N/A   Overcast
5:53 PM 35.1 °F 30.1 °F 30.9 °F 85% 30.11 in 10.0 mi NE 5.8 mph - N/A   Mostly Cloudy
6:53 PM 34.0 °F 28.8 °F 30.9 °F 89% 30.12 in 10.0 mi NE 5.8 mph - N/A   Mostly Cloudy
7:53 PM 34.0 °F 28.8 °F 30.9 °F 89% 30.13 in 10.0 mi NNE 5.8 mph - N/A   Mostly Cloudy
8:53 PM 33.1 °F - 30.9 °F 92% 30.12 in 10.0 mi Calm Calm - N/A   Overcast
9:53 PM 32.0 °F 28.7 °F 30.2 °F 93% 30.03 in 10.0 mi NNE 3.5 mph - N/A   Mostly Cloudy
10:53 PM 32.0 °F 28.7 °F 30.0 °F 92% 30.11 in 10.0 mi North 3.5 mph - N/A   Scattered Clouds
11:53 PM 30.9 °F 27.5 °F 30.0 °F 96% 30.08 in 10.0 mi North 3.5 mph - N/A   Scattered Clouds